When you browse on this site, cookies collect data to enhance your experience and personalize the content and advertising you see.
Visit our Privacy Policy to learn more. By continuing to use the site, you agree to this use of cookies and data.
  • In Austria
  • List of Countries
  • For 7 days
  • Water Temperature
  • Weather Map
  • News
  • Weather Widgets
  • user-avatar
    Login

    Hourly Weather Korçe

    Today, 13 December, Friday

    Time Temperature Precipitation Wind Pressure Humidity
    00:00 +3°C° 0.1 mm 2 mps 656 mmHg 94%
    01:00 +2°C° 0 mm 2 mps 656 mmHg 94%
    02:00 +2°C° 0.1 mm 2 mps 656 mmHg 94%
    03:00 +2°C° 0.1 mm 2 mps 655 mmHg 94%
    04:00 +2°C° 0.1 mm 2 mps 655 mmHg 94%
    05:00 +2°C° 0.3 mm 2 mps 655 mmHg 95%
    06:00 +2°C° 0.3 mm 2 mps 656 mmHg 95%
    07:00 +3°C° 0.3 mm 1 mps 656 mmHg 95%
    08:00 +4°C° 0.1 mm 1 mps 656 mmHg 93%
    09:00 +5°C° 0.1 mm 1 mps 656 mmHg 91%
    10:00 +4°C° 0.1 mm 2 mps 656 mmHg 89%
    11:00 +5°C° 0.1 mm 2 mps 656 mmHg 83%
    12:00 +5°C° 0.1 mm 2 mps 656 mmHg 78%
    13:00 +6°C° 0.1 mm 2 mps 655 mmHg 73%
    14:00 +5°C° 0.1 mm 2 mps 655 mmHg 77%
    15:00 +5°C° 0.1 mm 2 mps 654 mmHg 80%
    16:00 +4°C° 0.1 mm 2 mps 653 mmHg 84%
    17:00 +3°C° 0 mm 2 mps 653 mmHg 87%
    18:00 +2°C° 0 mm 3 mps 653 mmHg 89%
    19:00 +2°C° 0 mm 3 mps 652 mmHg 92%
    20:00 +2°C° 0.6 mm 3 mps 651 mmHg 93%
    21:00 +1°C° 0.6 mm 4 mps 651 mmHg 94%
    22:00 +1°C° 0.6 mm 4 mps 650 mmHg 94%
    23:00 +1°C° 5.5 mm 4 mps 649 mmHg 95%

    Tomorrow, 14 December, Saturday

    Time Temperature Precipitation Wind Pressure Humidity
    00:00 +1°C° 5.5 mm 4 mps 648 mmHg 96%
    01:00 +1°C° 5.5 mm 4 mps 647 mmHg 97%
    02:00 +1°C° 3.9 mm 3 mps 646 mmHg 97%
    03:00 +1°C° 3.9 mm 3 mps 646 mmHg 97%
    04:00 +1°C° 3.9 mm 3 mps 645 mmHg 97%
    05:00 +2°C° 2.9 mm 2 mps 646 mmHg 97%
    06:00 +2°C° 2.9 mm 2 mps 646 mmHg 97%
    07:00 +2°C° 2.9 mm 1 mps 647 mmHg 97%
    08:00 +3°C° 0.3 mm 1 mps 647 mmHg 96%
    09:00 +3°C° 0.3 mm 1 mps 648 mmHg 95%
    10:00 +4°C° 0.3 mm 1 mps 649 mmHg 95%
    11:00 +4°C° 0.1 mm 1 mps 649 mmHg 93%
    12:00 +4°C° 0.1 mm 2 mps 650 mmHg 91%
    13:00 +4°C° 0.1 mm 2 mps 651 mmHg 89%
    14:00 +4°C° 0.1 mm 2 mps 652 mmHg 90%
    15:00 +4°C° 0.1 mm 2 mps 653 mmHg 92%
    16:00 +4°C° 0.1 mm 2 mps 654 mmHg 94%
    17:00 +4°C° 0 mm 2 mps 655 mmHg 95%
    18:00 +3°C° 0 mm 2 mps 656 mmHg 95%
    19:00 +3°C° 0 mm 2 mps 657 mmHg 96%
    20:00 +3°C° 0 mm 2 mps 658 mmHg 95%
    21:00 +3°C° 0 mm 2 mps 659 mmHg 94%
    22:00 +3°C° 0 mm 2 mps 660 mmHg 93%
    23:00 +3°C° 0 mm 2 mps 660 mmHg 93%

    Day after tomorrow, 15 December, Sunday

    Time Temperature Precipitation Wind Pressure Humidity
    00:00 +3°C° 0 mm 2 mps 661 mmHg 92%
    01:00 +3°C° 0 mm 2 mps 662 mmHg 92%
    02:00 +3°C° 0 mm 2 mps 662 mmHg 92%
    03:00 +3°C° 0 mm 2 mps 662 mmHg 91%
    04:00 +3°C° 0 mm 2 mps 663 mmHg 91%
    05:00 +3°C° 0 mm 2 mps 664 mmHg 91%
    06:00 +3°C° 0 mm 2 mps 664 mmHg 91%
    07:00 +3°C° 0 mm 2 mps 665 mmHg 91%
    08:00 +4°C° 0 mm 2 mps 666 mmHg 89%
    09:00 +6°C° 0 mm 2 mps 666 mmHg 88%
    10:00 +7°C° 0 mm 2 mps 667 mmHg 86%
    11:00 +8°C° 0 mm 2 mps 668 mmHg 84%
    12:00 +9°C° 0 mm 1 mps 668 mmHg 83%
    13:00 +10°C° 0 mm 1 mps 668 mmHg 81%
    14:00 +9°C° 0 mm 1 mps 668 mmHg 84%
    15:00 +8°C° 0 mm 1 mps 668 mmHg 87%
    16:00 +7°C° 0 mm 1 mps 668 mmHg 90%
    17:00 +7°C° 0 mm 1 mps 668 mmHg 89%
    18:00 +7°C° 0 mm 1 mps 668 mmHg 89%
    19:00 +6°C° 0 mm 1 mps 669 mmHg 88%
    20:00 +6°C° 0 mm 1 mps 669 mmHg 87%
    21:00 +6°C° 0 mm 1 mps 669 mmHg 87%
    22:00 +6°C° 0 mm 1 mps 669 mmHg 86%
    23:00 +6°C° 0 mm 1 mps 670 mmHg 86%

    16 December, Monday

    Time Temperature Precipitation Wind Pressure Humidity
    00:00 +5°C° 0 mm 1 mps 670 mmHg 86%
    01:00 +5°C° 0 mm 1 mps 670 mmHg 87%
    02:00 +5°C° 0 mm 1 mps 670 mmHg 87%
    03:00 +5°C° 0 mm 1 mps 670 mmHg 88%
    04:00 +5°C° 0 mm 1 mps 670 mmHg 88%
    05:00 +5°C° 0 mm 1 mps 670 mmHg 88%
    06:00 +5°C° 0 mm 1 mps 670 mmHg 88%
    07:00 +5°C° 0 mm 1 mps 670 mmHg 89%
    08:00 +6°C° 0 mm 1 mps 671 mmHg 86%
    09:00 +8°C° 0 mm 1 mps 672 mmHg 83%
    10:00 +9°C° 0 mm 1 mps 672 mmHg 81%
    11:00 +10°C° 0 mm 1 mps 672 mmHg 78%
    12:00 +10°C° 0 mm 1 mps 672 mmHg 75%
    13:00 +11°C° 0 mm 1 mps 672 mmHg 72%
    14:00 +10°C° 0 mm 1 mps 672 mmHg 77%
    15:00 +9°C° 0 mm 1 mps 671 mmHg 81%
    16:00 +8°C° 0 mm 1 mps 671 mmHg 85%
    17:00 +7°C° 0 mm 1 mps 671 mmHg 87%
    18:00 +7°C° 0 mm 1 mps 671 mmHg 88%
    19:00 +6°C° 0 mm 1 mps 671 mmHg 89%
    20:00 +6°C° 0 mm 1 mps 671 mmHg 88%
    21:00 +6°C° 0 mm 1 mps 671 mmHg 88%
    22:00 +6°C° 0 mm 1 mps 671 mmHg 87%
    23:00 +5°C° 0 mm 1 mps 671 mmHg 86%

    17 December, Tuesday

    Time Temperature Precipitation Wind Pressure Humidity
    00:00 +5°C° 0 mm 1 mps 670 mmHg 85%
    01:00 +5°C° 0 mm 1 mps 670 mmHg 84%
    02:00 +5°C° 0 mm 1 mps 670 mmHg 83%
    03:00 +5°C° 0 mm 1 mps 670 mmHg 82%
    04:00 +5°C° 0 mm 1 mps 670 mmHg 80%
    05:00 +5°C° 0 mm 1 mps 670 mmHg 78%
    06:00 +5°C° 0 mm 1 mps 670 mmHg 76%
    07:00 +5°C° 0 mm 1 mps 670 mmHg 74%
    08:00 +7°C° 0 mm 1 mps 671 mmHg 72%
    09:00 +8°C° 0 mm 1 mps 671 mmHg 69%
    10:00 +10°C° 0 mm 1 mps 672 mmHg 67%
    11:00 +11°C° 0 mm 1 mps 672 mmHg 65%
    12:00 +11°C° 0 mm 1 mps 672 mmHg 64%
    13:00 +12°C° 0 mm 1 mps 672 mmHg 63%
    14:00 +11°C° 0 mm 1 mps 671 mmHg 69%
    15:00 +9°C° 0 mm 1 mps 671 mmHg 75%
    16:00 +8°C° 0 mm 1 mps 670 mmHg 80%
    17:00 +8°C° 0 mm 1 mps 670 mmHg 79%
    18:00 +7°C° 0 mm 1 mps 670 mmHg 78%
    19:00 +7°C° 0 mm 1 mps 670 mmHg 78%
    20:00 +7°C° 0 mm 1 mps 670 mmHg 75%
    21:00 +6°C° 0 mm 1 mps 670 mmHg 73%
    22:00 +6°C° 0 mm 1 mps 670 mmHg 71%
    23:00 +6°C° 0 mm 1 mps 670 mmHg 72%

    18 December, Wednesday

    Time Temperature Precipitation Wind Pressure Humidity
    00:00 +6°C° 0 mm 1 mps 670 mmHg 72%
    01:00 +6°C° 0 mm 1 mps 670 mmHg 73%
    02:00 +5°C° 0 mm 1 mps 670 mmHg 73%
    03:00 +5°C° 0 mm 1 mps 669 mmHg 73%
    04:00 +5°C° 0 mm 1 mps 669 mmHg 73%
    05:00 +5°C° 0 mm 1 mps 669 mmHg 73%
    06:00 +5°C° 0 mm 1 mps 669 mmHg 72%
    07:00 +5°C° 0 mm 1 mps 669 mmHg 72%
    08:00 +7°C° 0 mm 1 mps 670 mmHg 70%
    09:00 +8°C° 0 mm 1 mps 670 mmHg 69%
    10:00 +9°C° 0 mm 2 mps 671 mmHg 67%
    11:00 +10°C° 0 mm 2 mps 671 mmHg 66%
    12:00 +10°C° 0 mm 2 mps 671 mmHg 66%
    13:00 +12°C° 0 mm 2 mps 670 mmHg 65%
    14:00 +10°C° 0 mm 2 mps 670 mmHg 72%
    15:00 +8°C° 0 mm 2 mps 670 mmHg 78%
    16:00 +7°C° 0 mm 2 mps 669 mmHg 85%
    17:00 +7°C° 0 mm 2 mps 669 mmHg 86%
    18:00 +6°C° 0 mm 2 mps 669 mmHg 88%
    19:00 +5°C° 0 mm 2 mps 669 mmHg 90%
    20:00 +5°C° 0 mm 2 mps 669 mmHg 90%
    21:00 +5°C° 0 mm 2 mps 669 mmHg 90%
    22:00 +4°C° 0 mm 2 mps 669 mmHg 90%
    23:00 +4°C° 0 mm 2 mps 669 mmHg 90%
    Show more